TimeCET,TemperatureF,Dew PointF,Humidity,Sea Level PressureIn,VisibilityMPH,Wind Direction,Wind SpeedMPH,Gust SpeedMPH,PrecipitationIn,Events,Conditions,WindDirDegrees,DateUTC
12:00 AM,44,39,78,29.80,6,ESE,11.2,,,,Mist,120,2013-12-28 23:00:00
12:00 AM,42.8,39.2,87,29.77,5.6,ESE,10.4,-,N/A,,Overcast,110,2013-12-28 23:00:00
12:30 AM,42.8,39.2,87,29.77,6.2,ESE,10.4,-,N/A,,Overcast,120,2013-12-28 23:30:00
1:00 AM,44,39,78,29.82,6,SE,6.7,,,,Overcast,130,2013-12-29 00:00:00
1:00 AM,42.8,39.2,87,29.80,6.2,SE,9.2,-,N/A,,Overcast,130,2013-12-29 00:00:00
1:30 AM,42.8,39.2,87,29.77,6.2,ESE,8.1,-,N/A,,Overcast,110,2013-12-29 00:30:00
2:00 AM,43,39,81,29.82,6,ESE,8.9,,,,Overcast,110,2013-12-29 01:00:00
2:00 AM,42.8,39.2,87,29.77,6.2,ESE,8.1,-,N/A,,Overcast,110,2013-12-29 01:00:00
2:30 AM,42.8,39.2,87,29.80,6.2,SE,9.2,-,N/A,,Overcast,130,2013-12-29 01:30:00
3:00 AM,41,38,85,29.85,6,ESE,6.7,,,,Overcast,120,2013-12-29 02:00:00
3:00 AM,41.0,39.2,93,29.80,6.2,ESE,6.9,-,N/A,,Overcast,120,2013-12-29 02:00:00
3:30 AM,41.0,39.2,93,29.83,6.2,SSE,3.5,-,N/A,,Overcast,150,2013-12-29 02:30:00
4:00 AM,42,38,81,29.87,7,South,8.9,,,,Overcast,190,2013-12-29 03:00:00
4:00 AM,41.0,39.2,93,29.83,6.2,SSW,5.8,-,N/A,,Overcast,200,2013-12-29 03:00:00
4:30 AM,41.0,39.2,93,29.86,6.2,South,5.8,-,N/A,,Overcast,190,2013-12-29 03:30:00
5:00 AM,41,38,85,29.89,7,SSW,6.7,,,,Overcast,200,2013-12-29 04:00:00
5:00 AM,41.0,37.4,87,29.86,6.2,SSW,5.8,-,N/A,,Overcast,210,2013-12-29 04:00:00
5:30 AM,41.0,39.2,93,29.89,6.2,SW,6.9,-,N/A,,Overcast,220,2013-12-29 04:30:00
6:00 AM,40,38,90,29.93,6,SSW,8.9,,,,Overcast,200,2013-12-29 05:00:00
6:00 AM,41.0,37.4,87,29.89,6.2,SSW,8.1,-,N/A,,Overcast,210,2013-12-29 05:00:00
6:30 AM,39.2,37.4,93,29.92,6.2,SW,10.4,-,N/A,,Mostly Cloudy,220,2013-12-29 05:30:00
7:00 AM,40,38,88,29.96,5,WSW,8.9,,,,Mist,240,2013-12-29 06:00:00
7:00 AM,39.2,37.4,93,29.92,5.0,WSW,10.4,-,N/A,,Mostly Cloudy,240,2013-12-29 06:00:00
7:30 AM,39.2,37.4,93,29.95,4.3,SW,8.1,-,N/A,,Scattered Clouds,220,2013-12-29 06:30:00
8:00 AM,39,37,90,29.99,5,WSW,4.5,,,,Mist,250,2013-12-29 07:00:00
8:00 AM,39.2,37.4,93,29.95,5.0,WSW,5.8,-,N/A,,Partly Cloudy,250,2013-12-29 07:00:00
8:30 AM,39.2,35.6,87,29.98,-9999.0,SW,6.9,-,N/A,,Clear,230,2013-12-29 07:30:00
9:00 AM,39,36,84,30.03,7,WSW,6.7,,,,Partly Cloudy,240,2013-12-29 08:00:00
9:00 AM,39.2,35.6,87,29.98,6.2,SW,5.8,-,N/A,,Partly Cloudy,230,2013-12-29 08:00:00
9:30 AM,39.2,35.6,87,30.01,6.2,SW,5.8,-,N/A,,Scattered Clouds,230,2013-12-29 08:30:00
10:00 AM,41,37,80,30.06,7,SSW,6.7,,,,Partly Cloudy,200,2013-12-29 09:00:00
10:00 AM,41.0,37.4,87,30.01,6.2,South,5.8,-,N/A,,Scattered Clouds,190,2013-12-29 09:00:00
10:30 AM,41.0,37.4,87,30.04,6.2,SSW,6.9,-,N/A,,Scattered Clouds,210,2013-12-29 09:30:00
11:00 AM,42,37,76,30.06,9,SSW,6.7,,,,Mostly Cloudy,200,2013-12-29 10:00:00
11:00 AM,42.8,37.4,81,30.04,6.2,SSW,5.8,-,N/A,,Mostly Cloudy,200,2013-12-29 10:00:00
11:30 AM,46.4,37.4,71,30.04,6.2,SW,8.1,-,N/A,,Scattered Clouds,230,2013-12-29 10:30:00
12:00 PM,46,35,56,30.06,12,West,13.4,,,,Mostly Cloudy,260,2013-12-29 11:00:00
12:00 PM,46.4,35.6,66,30.04,6.2,West,13.8,-,N/A,,Mostly Cloudy,260,2013-12-29 11:00:00
12:30 PM,46.4,35.6,66,30.04,6.2,West,10.4,-,N/A,,Mostly Cloudy,260,2013-12-29 11:30:00
1:00 PM,46,35,55,30.09,19,WSW,8.9,,,,Mostly Cloudy,240,2013-12-29 12:00:00
1:00 PM,46.4,35.6,66,30.06,6.2,SW,9.2,-,N/A,,Mostly Cloudy,230,2013-12-29 12:00:00
1:30 PM,46.4,35.6,66,30.06,6.2,WSW,8.1,-,N/A,,Mostly Cloudy,240,2013-12-29 12:30:00
2:00 PM,46,35,55,30.09,22,West,11.2,,,,Mostly Cloudy,270,2013-12-29 13:00:00
2:00 PM,46.4,35.6,66,30.06,6.2,West,10.4,-,N/A,,Mostly Cloudy,260,2013-12-29 13:00:00
2:30 PM,46.4,33.8,62,30.09,6.2,West,6.9,-,N/A,,Mostly Cloudy,260,2013-12-29 13:30:00
3:00 PM,46,34,52,30.13,22,West,6.7,,,,Mostly Cloudy,260,2013-12-29 14:00:00
3:00 PM,46.4,35.6,66,30.09,6.2,WSW,8.1,-,N/A,,Mostly Cloudy,250,2013-12-29 14:00:00
3:30 PM,44.6,33.8,66,30.12,6.2,West,9.2,-,N/A,,Scattered Clouds,270,2013-12-29 14:30:00
4:00 PM,44,33,55,30.17,22,West,6.7,,,,Partly Cloudy,270,2013-12-29 15:00:00
4:00 PM,44.6,33.8,66,30.12,6.2,West,6.9,-,N/A,,Scattered Clouds,260,2013-12-29 15:00:00
4:30 PM,44.6,33.8,66,30.15,6.2,West,6.9,-,N/A,,Scattered Clouds,280,2013-12-29 15:30:00
5:00 PM,43,33,56,30.20,19,West,4.5,,,,Partly Cloudy,280,2013-12-29 16:00:00
5:00 PM,42.8,33.8,70,30.15,6.2,West,5.8,-,N/A,,Partly Cloudy,280,2013-12-29 16:00:00
5:30 PM,42.8,32.0,66,30.15,6.2,West,4.6,-,N/A,,Partly Cloudy,280,2013-12-29 16:30:00
6:00 PM,42,32,59,30.22,16,SW,4.5,,,,Scattered Clouds,230,2013-12-29 17:00:00
6:00 PM,41.0,32.0,70,30.18,6.2,SW,3.5,-,N/A,,Partly Cloudy,220,2013-12-29 17:00:00
6:30 PM,41.0,33.8,76,30.18,6.2,Calm,Calm,-,N/A,,Partly Cloudy,0,2013-12-29 17:30:00
7:00 PM,41,33,62,30.24,16,NW,2.2,,,,Scattered Clouds,310,2013-12-29 18:00:00
7:00 PM,41.0,33.8,76,30.21,6.2,Calm,Calm,-,N/A,,Partly Cloudy,0,2013-12-29 18:00:00
7:30 PM,41.0,32.0,70,30.21,6.2,WSW,1.2,-,N/A,,Partly Cloudy,240,2013-12-29 18:30:00
8:00 PM,41,32,62,30.25,12,WSW,2.2,,,,Mostly Cloudy,250,2013-12-29 19:00:00
8:00 PM,41.0,32.0,70,30.21,-9999.0,WSW,4.6,-,N/A,,Clear,250,2013-12-29 19:00:00
8:30 PM,39.2,32.0,75,30.21,-9999.0,West,4.6,-,N/A,,Clear,270,2013-12-29 19:30:00
9:00 PM,39,32,68,30.27,12,West,2.2,,,,Mostly Cloudy,280,2013-12-29 20:00:00
9:00 PM,39.2,33.8,81,30.24,-9999.0,WSW,4.6,-,N/A,,Clear,250,2013-12-29 20:00:00
9:30 PM,39.2,32.0,75,30.24,-9999.0,Variable,2.3,-,N/A,,Clear,0,2013-12-29 20:30:00
10:00 PM,39,32,69,30.30,12,ENE,2.2,,,,Mostly Cloudy,70,2013-12-29 21:00:00
10:00 PM,39.2,32.0,75,30.24,-9999.0,East,2.3,-,N/A,,Clear,80,2013-12-29 21:00:00
10:30 PM,39.2,32.0,75,30.27,-9999.0,Calm,Calm,-,N/A,,Clear,0,2013-12-29 21:30:00
11:00 PM,39,32,67,30.31,12,SE,2.2,,,,Mostly Cloudy,140,2013-12-29 22:00:00
11:00 PM,39.2,32.0,75,30.27,-9999.0,Calm,Calm,-,N/A,,Clear,0,2013-12-29 22:00:00
11:30 PM,37.4,32.0,81,30.27,-9999.0,Calm,Calm,-,N/A,,Clear,0,2013-12-29 22:30:00